Location: Newark
(63.1158°N, 8.1461°E)
Time: 13:25:02
(UTC+00:00)

Envisat - Pass Details

Date: 13 December 2019
Orbit: 764 x 766 km, 98.1° (Epoch: 19 January)

Event Time Altitude Azimuth Distance (km) Brightness Sun altitude
Rises 04:23:35 0° 21° (NNE) 3,250 6.5 -27.0°
Reaches altitude 10° 04:27:28 10° 51° (NE) 2,317 6.1 -26.6°
Maximum altitude 04:29:33 12° 75° (ENE) 2,151 6.2 -26.3°
Drops below altitude 10° 04:31:38 10° 100° (E) 2,311 6.5 -26.1°
Sets 04:35:28 0° 130° (SE) 3,231 7.0 -25.7°
